Weather History for St. Kitts, Saint Kitts and Nevis

Change the Weather History Date:

Monday, February 17, 2014

  Actual Average Record
Temperature  
Mean Temperature 77 °F -  
Max Temperature 84 °F 81 °F 86 °F (2007)
Min Temperature 70 °F 73 °F 68 °F (2006)
Cooling Degree Days 12    
Growing Degree Days 27 (Base 50)    
Moisture  
Dew Point 68 °F    
Average Humidity 67    
Maximum Humidity 89    
Minimum Humidity 49    
Precipitation  
Precipitation 0.00 in - - ()
Sea Level Pressure  
Sea Level Pressure 30.02 in    
Wind  
Wind Speed 8 mph ()    
Max Wind Speed 14 mph    
Max Gust Speed -    
Visibility 7.5 miles    
Events Rain    
Averages and records for this station are not official NWS values.
T = Trace of Precipitation, MM = Missing Value Source: Averaged Metar Reports

Daily Weather History Graph

Daily Weather History Graph

Search for Another Location

Airport:

Trip Planner

Search our weather history database for the weather conditions in past years. The results will help you decide how hot, cold, wet, or windy it might be!

Date:

Astronomy

Feb. 17, 2014 Rise Set
Actual Time 6:36 AM AST 6:13 PM AST
Civil Twilight 6:14 AM AST 6:35 PM AST
Nautical Twilight 5:48 AM AST 7:00 PM AST
Astronomical Twilight 5:23 AM AST 7:26 PM AST
Moon 8:31 PM AST (2/17) 8:02 AM AST (2/17)
Length of Visible Light 12h 21m
Length of Day
11h 37m
Waning Gibbous, 93% of the Moon is Illuminated
Feb 17
Waning Gibbous
Feb 22
Last Quarter
Mar 1
New
Mar 8
First Quarter
Mar 16
Full

Hourly Weather History & Observations

Time (AST) Temp. Heat Index Dew Point Humidity Pressure Visibility Wind Dir Wind Speed Gust Speed Precip Events Conditions
6:00 AM 75.2 °F - 71.6 °F 89% 30.04 in 6.2 mi East 8.1 mph - N/A Rain Light Rain Showers
7:00 AM 73.4 °F - 68.0 °F 83% 30.04 in 6.2 mi Variable 2.3 mph - N/A Rain Light Rain Showers
8:00 AM 74 °F - 68 °F 78% 30.06 in 17 mi 2.3 mph - - Rain Light Rain Showers
8:00 AM 75.2 °F - 68.0 °F 78% 30.04 in 6.2 mi Variable 2.3 mph - N/A   Mostly Cloudy
9:00 AM 78.8 °F - 68.0 °F 69% 30.06 in 6.2 mi ENE 11.5 mph - N/A   Mostly Cloudy
10:00 AM 82.4 °F 84.6 °F 66.2 °F 58% 30.06 in 6.2 mi ENE 12.7 mph - N/A   Partly Cloudy
11:00 AM 82 °F - 66 °F 49% 30.07 in 25 mi East 11.5 mph - -   Partly Cloudy
11:00 AM 82.4 °F 84.6 °F 66.2 °F 58% 30.06 in 6.2 mi East 11.5 mph - N/A   Scattered Clouds
12:00 PM 82.4 °F 85.4 °F 68.0 °F 62% 30.04 in 6.2 mi East 10.4 mph - N/A   Partly Cloudy
1:00 PM 84.2 °F 87.3 °F 68.0 °F 58% 30.01 in 6.2 mi ENE 13.8 mph - N/A   Partly Cloudy
2:00 PM 82 °F - 67 °F 52% 30.00 in 22 mi ENE 12.7 mph - -   Scattered Clouds
2:00 PM 82.4 °F 85.4 °F 68.0 °F 62% 29.98 in 6.2 mi ENE 12.7 mph - N/A   Partly Cloudy
3:00 PM 82.4 °F 85.4 °F 68.0 °F 62% 29.98 in 6.2 mi NNE 10.4 mph - N/A   Partly Cloudy
4:00 PM 80.6 °F 82.7 °F 66.2 °F 61% 29.98 in 6.2 mi ENE 10.4 mph - N/A   Partly Cloudy
5:00 PM 80 °F - 67 °F 55% 29.99 in 22 mi ENE 11.5 mph - -   Scattered Clouds
5:00 PM 80.6 °F 82.7 °F 66.2 °F 61% 29.98 in 6.2 mi ENE 11.5 mph - N/A   Partly Cloudy
6:00 PM 77.0 °F - 68.0 °F 74% 29.98 in 6.2 mi NE 12.7 mph - N/A   Partly Cloudy
7:00 PM 77.0 °F - 68.0 °F 74% 30.01 in 6.2 mi ENE 10.4 mph - N/A   Partly Cloudy
8:00 PM 76 °F - 67 °F 66% 30.02 in 19 mi ENE 10.4 mph - -   Scattered Clouds
8:00 PM 75.2 °F - 66.2 °F 73% 30.01 in 6.2 mi ENE 10.4 mph - N/A   Partly Cloudy
9:00 PM 75.2 °F - 68.0 °F 78% 30.04 in 6.2 mi NE 11.5 mph - N/A   Partly Cloudy